Regional Weather Roundup
Issued by NWS Mt. Holly, NJ

Home | Current Version | Previous Version | Text Only | Print | Product List | Glossary On
Versions: 1 2 3 4 5 6 7 8 9 10 11 12 13 14 15 16 17 18 19 20 21 22 23 24 25 26 27 28 29 30 31 32 33 34 35 36 37 38 39 40 41 42 43 44 45 46 47 48 49 50
373
ASUS41 KPHI 241912
RWRPHI

REGIONAL WEATHER ROUNDUP
NATIONAL WEATHER SERVICE MOUNT HOLLY NJ
300 PM EDT TUE MAY 24 2016

NOTE:  "FAIR" INDICATES FEW OR NO CLOUDS BELOW 12,000 FEET WITH NO
SIGNIFICANT WEATHER AND/OR OBSTRUCTIONS TO VISIBILITY.

 * = STATION DOES NOT REPORT PRECIPITATION (E.G. RAIN, SNOW, ETC.)
        OR FOG.

NJZ015>026-242000-
SOUTHERN NEW JERSEY

CITY           SKY/WX    TMP DP  RH WIND       PRES   REMARKS
POMONA         CLOUDY    74  54  49 NW10G17   29.94S
WILDWOOD*      PTSUNNY  N/A N/A N/A W8        29.97S
MILLVILLE      MOSUNNY   77  54  44 W12       29.95F
WRIGHTSTOWN    MOSUNNY   77  55  46 W12       29.89F
MOUNT HOLLY    PTSUNNY   76  52  43 SW8       29.91F
TRENTON        SUNNY     77  52  41 W10       29.90F

$$
NJZ001>014-242000-
NORTHERN NEW JERSEY

CITY           SKY/WX    TMP DP  RH WIND       PRES   REMARKS
SUSSEX         CLOUDY    72  53  51 NE9       29.90F
ANDOVER*         N/A     79  44  28 CALM      29.89F
MORRISTOWN     PTSUNNY   73  59  60 MISG      29.91F
NEWARK         PTSUNNY   73  55  53 W7        29.90F
TETERBORO      PTSUNNY   74  50  42 CALM      29.89F
CALDWELL       CLOUDY    75  50  41 NW6       29.91S
SOMERVILLE     MOSUNNY   76  55  48 S6        29.88F
ALLAIRE*       MOSUNNY   75  56  51 W12G17    29.92F
TOMS RIVER*    MOSUNNY   77  52  41 W13       29.91F

$$
PAZ043-044-047-054-055-060>062-066>071-242000-
EASTERN PENNSYLVANIA

CITY           SKY/WX    TMP DP  RH WIND       PRES   REMARKS
PHILADELPHIA   PTSUNNY   78  49  35 SW12      29.91F
NORTH PHILA    CLOUDY    78  51  38 SW10      29.92F
BLUE BELL*     PTSUNNY   75  54  46 SW5       29.90F
DOYLESTOWN     MOSUNNY   76  48  37 SW6       29.89F
QUAKERTOWN*    CLOUDY    81  50  34 NW9G17    29.91F
PERKASIE*      MOCLDY    75  50  41 NW6G16    29.91F
POTTSTOWN      PTSUNNY   76  48  37 NW8       29.92F
LANCASTER      MOSUNNY   80  48  32 NW15G24   29.94S
COATESVILLE    MOSUNNY   79  45  29 NW14G23   29.95F
READING        PTSUNNY   80  44  27 W16       29.91F
ALLENTOWN      MOSUNNY   83  42  23 N9G18     29.89F
MOUNT POCONO   PTSUNNY   69  36  29 N14G23    29.94F
HAZLETON       PTSUNNY   79  41  25 NW10G17   29.98S
LEHIGHTON      FAIR      79  37  22 W8        29.91F
WILKES BARRE   SUNNY     82  38  20 N17G24    29.92S

$$
DEZALL-MDZ008-012-015-019-020-242000-
DELAWARE AND EASTERN MARYLAND

CITY           SKY/WX    TMP DP  RH WIND       PRES   REMARKS
WILMINGTON     SUNNY     81  52  36 NW16      29.93F
GEORGETOWN     SUNNY     78  53  41 SW9       29.97F
EASTON         MOSUNNY   79  59  50 N6        30.01F
ABERDEEN       PTSUNNY   82  54  36 NW9       29.96F
PATUXENT       PTSUNNY   76  54  46 SE8       29.99S
OCEAN CITY     SUNNY     76  56  49 SW7       29.98F
WALLOPS ISLAND PTSUNNY   79  53  40 NW12      29.99F
CAMBRIDGE      SUNNY     77  50  38 NW5       29.98F
SALISBURY      SUNNY     77  53  43 NW8       29.98F

$$
PAZ001-021-NYZ056-072-MDZ011-DCZ001-242000-
OTHER NEARBY LOCATIONS

CITY           SKY/WX    TMP DP  RH WIND       PRES   REMARKS
HARRISBURG     PTSUNNY   82  50  32 NW13      29.94S
STATE COLLEGE  MOSUNNY   79  46  31 W16       30.00S
WILLIAMSPORT   MOSUNNY   83  38  20 NW13G23   29.92F
BINGHAMTON     SUNNY     74  37  26 W14G21    29.94F
NEW YORK CITY  CLOUDY    73  53  49 VRB5      29.93F
BALTIMORE      PTSUNNY   81  48  31 W17G26    29.96F
WASHINGTON DC  FAIR      82  48  30 NW17G24   29.99F

$$




USA.gov is the U.S. government's official web portal to all federal, state and local government web resources and services.